This is the latest recevied weather packets stored in our database for station/object W5ALL-WX. If no packets are shown the sender has not sent any weather packets the latest 10 day(s).
| Time | Temp. | Humidity | Pressure | Rain* | Wind** | Luminosity | Snow |
|---|---|---|---|---|---|---|---|
| 1777562578 | 20.56° C | 11% | 1013.5 hPa | 0 mm | - | - | - |
| 1777562278 | 20.56° C | 11% | 1013.4 hPa | 0 mm | - | - | - |
| 1777561978 | 20.56° C | 11% | 1013.6 hPa | 0 mm | - | - | - |
| 1777561678 | 20.56° C | 12% | 1013.6 hPa | 0 mm | - | - | - |
| 1777561378 | 20.56° C | 12% | 1013.6 hPa | 0 mm | - | - | - |
| 1777561078 | 21.11° C | 12% | 1013.8 hPa | 0 mm | - | - | - |
| 1777560778 | 21.11° C | 12% | 1013.8 hPa | 0 mm | - | - | - |
| 1777560478 | 20.56° C | 13% | 1013.9 hPa | 0 mm | - | - | - |
| 1777560178 | 20.56° C | 14% | 1013.6 hPa | 0 mm | - | - | - |
| 1777559878 | 20.56° C | 13% | 1013.4 hPa | 0 mm | - | - | - |
| 1777559578 | 20° C | 14% | 1013.3 hPa | 0 mm | - | - | - |
| 1777559278 | 20° C | 15% | 1013.5 hPa | 0 mm | - | - | - |
| 1777558978 | 19.44° C | 16% | 1013.8 hPa | 0 mm | - | - | - |
| 1777558678 | 19.44° C | 16% | 1013.4 hPa | 0 mm | - | - | - |
| 1777558377 | 20° C | 19% | 1012.9 hPa | 0 mm | - | - | - |
| 1777558078 | 20° C | 19% | 1012.7 hPa | 0 mm | - | - | - |
| 1777557778 | 19.44° C | 21% | 1012.6 hPa | 0 mm | - | - | - |
| 1777557478 | 18.89° C | 19% | 1012.4 hPa | 0 mm | - | - | - |
| 1777557177 | 18.89° C | 20% | 1012.2 hPa | 0 mm | - | - | - |
| 1777556878 | 18.33° C | 23% | 1012.6 hPa | 0 mm | - | - | - |
| 1777556577 | 17.78° C | 21% | 1012.7 hPa | 0 mm | - | - | - |
| 1777556277 | 17.78° C | 21% | 1012.8 hPa | 0 mm | - | - | - |
| 1777555977 | 17.22° C | 22% | 1012.7 hPa | 0 mm | - | - | - |
| 1777555678 | 17.22° C | 21% | 1012.8 hPa | 0 mm | - | - | - |
| 1777555377 | 17.22° C | 20% | 1012.9 hPa | 0 mm | - | - | - |
* Rain latest hour (hover to see other rain measurements)
** Current wind speed in m/s (hover to see current wind gust speed)